[Date Prev][Date Next][Thread Prev][Thread Next] - [Date Index][Thread Index][Author Index]
2 Line ISS Keps 3-26
- Subject: [sarex] 2 Line ISS Keps 3-26
- From: "Dave Larsen PhD" <doc@xxxxxxxxxxx>
- Date: Fri, 25 Mar 2005 19:31:30 -0800
ISS
1 25544U 98067A 05085.02192321 .00030403 00000-0 24820-3 0 965
2 25544 051.6471 326.4255 0005700 292.9167 208.4544 15.70300524362602
----
Via the sarex mailing list at AMSAT.ORG courtesy of AMSAT-NA.
To unsubscribe, send "unsubscribe sarex" to Majordomo@amsat.org
AMSAT Home